FW5886 Weather Reports


time (UTC)temp
C
wind
direction
speed
KPH
gust
KPH
rain 1hr
cm
rain 24hr
cm
rain mn
cm
humidity
%
barometer
mb
20260506143053 12 342 14.5 27.4 0.00 0.00 0.00 78 1015.2
20260506141609 12 320 17.7 32.2 0.00 0.00 0.00 77 1014.7
20260506140055 12 50 16.1 25.7 0.00 0.00 0.00 76 1014.3
20260506134559 12 320 11.3 24.1 0.00 0.00 0.00 75 1014.4
20260506133102 12 5 12.9 25.7 0.00 0.00 0.00 73 1014.0
20260506131555 12 320 8.0 22.5 0.00 0.00 0.00 73 1013.5
20260506130054 13 15 11.3 30.6 0.00 0.00 0.00 73 1013.2
20260506124557 13 34 11.3 25.7 0.00 0.00 0.00 73 1013.3
20260506123049 13 320 12.9 25.7 0.00 0.00 0.00 73 1013.0
20260506121601 13 39 12.9 25.7 0.00 0.00 0.00 73 1012.7
20260506120119 13 26 8.0 20.9 0.00 0.00 0.00 74 1012.6
20260506114551 13 343 16.1 27.4 0.00 0.00 0.00 73 1012.5
20260506113056 13 23 12.9 24.1 0.00 0.00 0.00 73 1012.1
20260506111552 13 349 9.7 27.4 0.00 0.00 0.00 73 1011.6
20260506110050 14 320 12.9 24.1 0.00 0.00 0.00 73 1011.7
20260506104553 15 21 14.5 25.7 0.00 0.00 0.00 74 1011.4
20260506103054 15 5 8.0 20.9 0.00 0.00 0.00 73 1011.0
20260506101558 15 320 9.7 19.3 0.00 0.00 0.00 73 1010.8
20260506100055 15 32 9.7 22.5 0.00 0.00 0.00 73 1010.6
20260506094553 15 21 11.3 20.9 0.00 0.00 0.00 72 1010.4
20260506093054 15 33 6.4 17.7 0.00 0.00 0.00 73 1010.4
20260506091557 15 40 12.9 20.9 0.00 0.00 0.00 72 1010.4
20260506090056 16 22 8.0 16.1 0.00 0.00 0.00 73 1010.3
20260506084554 16 54 8.0 17.7 0.00 0.00 0.00 73 1010.2
20260506083054 16 48 3.2 17.7 0.00 0.00 0.00 73 1009.8
20260506081555 16 34 8.0 16.1 0.00 0.00 0.00 73 1009.7
20260506073100 16 48 11.3 19.3 0.00 0.00 0.00 74 1009.6
20260506071555 17 31 6.4 17.7 0.00 0.00 0.00 74 1009.7
20260506070114 17 38 11.3 20.9 0.00 0.00 0.00 73 1009.7
20260506061553 17 58 9.7 22.5 0.00 0.00 0.00 72 1009.5
20260506050112 19 354 12.9 20.9 0.00 0.00 0.00 71 1009.4
20260506044600 20 320 11.3 22.5 0.00 0.00 0.00 71 1009.3
20260506043054 20 342 11.3 25.7 0.00 0.00 0.00 70 1009.4
20260506041556 20 31 9.7 20.9 0.00 0.00 0.00 69 1009.4
20260506040059 21 40 9.7 24.1 0.00 0.00 0.00 68 1009.1
20260506034551 21 0 9.7 19.3 0.00 0.00 0.00 67 1008.8
20260506033052 21 22 9.7 20.9 0.00 0.00 0.00 66 1008.4
20260506031559 21 7 9.7 22.5 0.00 0.00 0.00 67 1008.4
20260506030105 22 360 11.3 24.1 0.00 0.00 0.00 66 1008.2
20260506024555 22 28 11.3 22.5 0.00 0.00 0.00 65 1008.1
20260506023055 23 8 4.8 24.1 0.00 0.00 0.00 64 1007.6
20260506021551 23 360 4.8 20.9 0.00 0.00 0.00 65 1007.2
20260506020050 24 73 11.3 25.7 0.00 0.00 0.00 63 1006.6
20260506014600 25 19 9.7 19.3 0.00 0.00 0.00 62 1006.2
20260506013051 26 63 6.4 19.3 0.00 0.00 0.00 61 1006.0
20260506011557 26 44 11.3 22.5 0.00 0.00 0.00 60 1005.8
20260506010059 27 12 4.8 14.5 0.00 0.00 0.00 59 1005.7
20260506004623 27 354 8.0 14.5 0.00 0.00 0.00 58 1005.5
20260506003049 28 18 8.0 17.7 0.00 0.00 0.00 58 1005.4
20260506001550 28 0 3.2 11.3 0.00 0.00 0.00 68 1005.3
20260506000054 28 320 4.8 20.9 0.00 0.00 0.00 67 1004.9
20260505234611 28 320 9.7 20.9 0.00 0.00 0.00 67 1004.6
20260505233050 29 320 8.0 22.5 0.00 0.00 0.00 66 1004.6
20260505231552 30 320 12.9 25.7 0.00 0.00 0.00 66 1004.3
20260505230052 30 320 11.3 22.5 0.00 0.00 0.00 63 1004.3
20260505224555 31 320 8.0 19.3 0.00 0.00 0.00 58 1003.9
20260505223101 31 173 9.7 19.3 0.00 0.00 0.00 57 1003.9
20260505221607 31 320 4.8 19.3 0.00 0.00 0.00 58 1003.7
20260505220126 31 142 4.8 16.1 0.00 0.00 0.00 57 1003.7
20260505214609 32 320 4.8 14.5 0.00 0.00 0.00 56 1003.9
20260505213055 31 0 4.8 12.9 0.00 0.00 0.00 55 1003.8
20260505211608 32 320 3.2 17.7 0.00 0.00 0.00 55 1004.3
20260505210052 31 248 3.2 17.7 0.00 0.00 0.00 55 1004.7
20260505204549 31 320 9.7 20.9 0.00 0.00 0.00 57 1004.6
20260505203054 31 320 4.8 19.3 0.00 0.00 0.00 59 1004.9
20260505201605 31 237 11.3 29.0 0.00 0.00 0.00 58 1005.0
20260505194555 30 320 12.9 29.0 0.00 0.00 0.00 60 1005.2
20260505193052 30 320 12.9 30.6 0.00 0.00 0.00 62 1005.2
20260505191554 28 320 8.0 33.8 0.00 0.00 0.00 65 1005.2
20260505190059 28 264 17.7 35.4 0.00 0.00 0.00 65 1005.3
20260505184554 28 320 17.7 32.2 0.00 0.00 0.00 65 1005.5
20260505183059 28 320 8.0 22.5 0.00 0.00 0.00 66 1005.6
20260505181555 28 320 12.9 27.4 0.00 0.00 0.00 66 1005.7
20260505180058 27 320 14.5 29.0 0.00 0.00 0.00 67 1005.7
20260505174553 27 320 11.3 30.6 0.00 0.00 0.00 68 1005.9
20260505173107 27 254 12.9 29.0 0.00 0.00 0.00 68 1006.0
20260505171556 26 320 11.3 27.4 0.00 0.00 0.00 70 1005.8
20260505170053 26 320 9.7 30.6 0.00 0.00 0.00 70 1005.9
20260505164614 26 320 16.1 27.4 0.00 0.00 0.00 70 1005.7
20260505163054 26 148 12.9 43.5 0.00 0.00 0.00 71 1005.6
20260505161558 26 320 14.5 30.6 0.00 0.00 0.00 72 1005.5
20260505153058 24 320 11.3 32.2 0.00 0.00 0.00 76 1005.9
20260505151558 24 320 12.9 38.6 0.00 0.00 0.00 76 1005.9